Flag for Greenland Weather past 2 weeks in Nuuk, Greenland

Now
41 °F

Drizzle. Fog.


Feels Like: 41 °F
Forecast: 43 / 48 °F
Wind: 2 mph from North

Location: Godthaab / Nuuk

Current Time: Sep 1, 2015 at 2:49:59 AM

Latest Report: Sep 1, 2015 at 1:50 AM


Visibility: 1 mi

Pressure: 29.95 "Hg

Humidity: 100%

Dew point: 41 °F

Location of NuukLocation

Historic Weather in Nuuk — Graph

°F

Nuuk temperature yesterday

Maximum temperature yesterday: 46 °F (at 12:50 PM)
Minimum temperature yesterday: 41 °F (at 3:50 AM)
Average temperature yesterday: 44 °F

Past Weeks' High & Low Weather Summary

 TemperatureHumidityPressure
High57 °F (Aug 26, 4:50 PM)100% (Aug 17, 8:50 PM)30.15 "Hg (Aug 17, 8:50 PM)
Low34 °F (Aug 24, 4:50 AM)32% (Aug 22, 11:50 AM)29.62 "Hg (Aug 30, 4:50 AM)
Average45 °F83%29.90 "Hg
* Reported Aug 17 12:50 AM — Sep 1 12:50 AM, Nuuk, Weather by CustomWeather, © 2015

Note: Actual official high and low records may vary slightly from our data, if they occured in-between our weather recording intervals... More about our weather records

Advertising

Nuuk weather history for previous 24 hours

 ConditionsComfort  
Time TempWeatherWind HumidityBarometerVisibility
12:50 AM
Tue, Sep 1
41 °FLight rain. Overcast.2 mph100%29.98 "Hg2 mi
11:50 PM
Mon, Aug 31
41 °FRain. Fog.5 mph100%29.98 "Hg2 mi
10:50 PM43 °FOvercast.7 mph93%29.98 "HgN/A
9:50 PM43 °FOvercast.7 mph93%29.98 "HgN/A
8:50 PM45 °FOvercast.No wind93%29.98 "HgN/A
7:50 PM45 °FPartly sunny.No wind93%29.98 "HgN/A
6:50 PM45 °FPartly sunny.No wind93%29.98 "HgN/A
5:50 PM45 °FDrizzle. Partly sunny.3 mph93%29.98 "HgN/A
4:50 PM45 °FDrizzle. Fog.2 mph87%29.98 "HgN/A
3:50 PM46 °FOvercast.2 mph82%29.95 "HgN/A
2:50 PM46 °FPartly sunny.9 mph87%29.95 "HgN/A
1:50 PM46 °FPartly sunny.12 mph82%29.95 "HgN/A
12:50 PM46 °FLight rain. Broken clouds.13 mph87%29.95 "HgN/A
11:50 AM45 °FBroken clouds.13 mph87%29.92 "HgN/A
10:50 AM45 °FScattered showers. Broken clouds.12 mph87%29.92 "HgN/A
9:50 AM43 °FLight rain. Broken clouds.14 mph93%29.89 "HgN/A
8:50 AM43 °FLight rain. Broken clouds.25 mph93%29.89 "HgN/A
7:50 AM45 °FScattered showers. Broken clouds.25 mph81%29.86 "HgN/A
6:50 AM43 °FLight rain. Fog.24 mph87%29.83 "Hg2 mi
5:50 AM43 °FSprinkles. Fog.25 mph87%29.83 "Hg2 mi
4:50 AM41 °FSprinkles. Passing clouds.21 mph93%29.80 "Hg4 mi
3:50 AM41 °FPassing clouds.17 mph100%29.77 "Hg3 mi
2:50 AM43 °FDrizzle. Fog.25 mph93%29.71 "Hg1 mi
Weather by CustomWeather, © 2015

See weather overviewHow to use our weather pages